Погода в Нуадибу

Мавритания     20°57′21″N   17°01′45″W
темп.,
°C
ветер,
м/с
пор.,
м/с
влажн.,
%
обл.,
%
осадки,
мм/ч
давл.,
гПа
погр.,
м
4 декабря, сб
сб400:00+19ссв711670 0.0 1016203
03:00+19св812590 0.0 1015248
06:00+18ссв811590 0.0 1016292
09:00+18ссв811550 0.0 1018299
12:00+20ссв68520 0.0 1018142
15:00+21с55580 0.0 101545
18:00+20ссз810700 0.0 1015105
21:00+19с710701 0.0 1017147
5 декабря, вс
вс500:00+19с71068100 0.0 1017152
03:00+19ссв6766100 0.0 1016119
06:00+19ссв5655100 0.0 101693
09:00+20св6848100 0.0 101798
12:00+21всв55464 0.0 101746
15:00+23всв334524 0.0 101511
18:00+22с3356100 0.0 101523
21:00+22св445184 0.0 101724
6 декабря, пн
пн600:00+22всв5849100 0.0 101661
03:00+21всв694915 0.0 101595
06:00+20ссв684912 0.0 101697
09:00+19ссв710461 0.0 1019171
12:00+21св710430 0.0 1018114
15:00+22ссв68440 0.0 101552
18:00+23ссв66445 0.0 101545
21:00+21ссв674815 0.0 101767
7 декабря, вт
вт700:00+20св56465 0.0 101757
03:00+20всв594594 0.0 101697
06:00+20всв694415 0.0 1016139
09:00+19св564336 0.0 1018111
12:00+21всв574428 0.0 101867
15:00+23всв554399 0.0 101524
18:00+19ссз101466100 0.0 1016177
21:00+21ссв814517 0.0 1017188
8 декабря, ср
ср800:00+21св6115087 0.0 1018120
03:00+20ссв6114615 0.0 1017123
06:00+20в6114492 0.0 1017135
09:00+20ссв56435 0.0 101884
12:00+21св45453 0.0 101938
15:00+22с45520 0.0 101631
18:00+21ссз78600 0.0 101667
21:00+20с812600 0.0 1018145